Stations météo

réclame
Mon MeteoGroup
Chassiron, France (7314): Température de l'air & dewpoint: 16.06.2018 19:00:00 - 22.06.2018 19:00:00 (CEST)Chassiron, France (7314): Vitesse du vent & gusts: 16.06.2018 19:00:00 - 22.06.2018 19:00:00 (CEST)Chassiron, France (7314): Direction du vent: 16.06.2018 19:00:00 - 22.06.2018 19:00:00 (CEST)Chassiron, France (7314): reduced air pressure: 16.06.2018 19:00:00 - 22.06.2018 19:00:00 (CEST)Chassiron, France (7314): visibility: 16.06.2018 19:00:00 - 22.06.2018 19:00:00 (CEST)Chassiron, France (7314): Quantités de précipitations: 16.06.2018 19:00:00 - 22.06.2018 19:00:00 (CEST)
Date & Time tt [°C] td [°C] ff [km/h] ff [knt] fx [km/h] fx [knt] dd ppp [hPa] vv [km] rr [mm]
22.06.2018 19:00:00 22,1 10,6 27 14 47 25 NE 1024,0 - 0,0
22.06.2018 18:00:00 22,3 12,0 25 13 46 25 NE 1024,4 - 0,0
22.06.2018 17:00:00 22,1 10,6 31 17 47 26 NE 1024,6 - 0,0
22.06.2018 16:00:00 21,8 9,0 27 15 42 23 NE 1024,9 - 0,0
22.06.2018 15:00:00 21,2 7,8 26 14 46 25 NE 1025,3 - 0,0
22.06.2018 14:00:00 20,4 8,4 27 15 46 25 NE 1025,6 - 0,0
22.06.2018 13:00:00 19,2 6,3 29 16 51 28 ENE 1025,6 - 0,0
22.06.2018 12:00:00 18,3 6,8 32 18 54 29 NE 1025,4 - 0,0
22.06.2018 11:00:00 17,1 6,6 34 18 54 29 NE 1025,8 16 0,0
22.06.2018 10:00:00 15,9 6,6 29 16 50 27 ENE 1026,0 - 0,0
22.06.2018 09:00:00 14,8 7,6 33 18 58 32 NE 1025,8 - 0,0
22.06.2018 08:00:00 14,2 7,3 36 19 54 29 NE 1025,5 - 0,0
22.06.2018 07:00:00 14,5 7,8 36 19 57 31 NE 1025,4 - 0,0
22.06.2018 06:00:00 14,9 8,6 37 20 59 32 NE 1025,0 - 0,0
22.06.2018 05:00:00 15,8 9,5 36 20 58 32 NE 1024,4 - 0,0
22.06.2018 04:00:00 16,4 10,3 37 20 59 32 NE 1024,0 - 0,0
22.06.2018 03:00:00 17,2 10,1 38 21 58 31 NE 1024,3 - 0,0
22.06.2018 02:00:00 17,9 11,7 32 17 50 27 NE 1024,0 14 0,0
22.06.2018 01:00:00 18,5 12,3 37 20 50 27 NNE 1023,7 - 0,0
22.06.2018 00:00:00 19,3 12,6 32 17 49 26 NNE 1023,5 - 0,0
21.06.2018 23:00:00 20,4 13,1 31 17 47 26 NNE 1023,2 17 0,0
21.06.2018 22:00:00 21,1 14,3 29 16 45 24 NNE 1022,2 - 0,0
21.06.2018 21:00:00 21,6 14,3 31 17 44 24 NNE 1021,6 - 0,0
21.06.2018 20:00:00 23,0 16,3 25 13 32 17 NNE 1021,2 - 0,0
21.06.2018 19:00:00 23,6 17,1 19 10 29 16 N 1021,2 - 0,0
21.06.2018 18:00:00 24,0 18,2 14 8 25 13 N 1021,4 - 0,0
21.06.2018 17:00:00 23,6 18,5 15 8 24 13 N 1021,5 - 0,0
21.06.2018 16:00:00 23,1 18,2 15 8 25 14 N 1021,5 - 0,0
21.06.2018 15:00:00 23,2 17,9 16 8 27 15 N 1021,5 - 0,0
21.06.2018 14:00:00 23,1 17,6 20 11 32 17 NNE 1021,3 17 0,0
21.06.2018 13:00:00 22,1 16,8 25 14 39 21 NNE 1021,0 - 0,0
21.06.2018 12:00:00 21,3 16,5 31 17 43 23 NNE 1020,9 - 0,0
21.06.2018 11:00:00 20,8 16,2 33 18 42 23 NNE 1020,7 17 0,0
21.06.2018 10:00:00 20,6 16,4 27 15 37 20 NNE 1020,7 - 0,0
21.06.2018 09:00:00 20,2 16,6 26 14 34 18 NNE 1020,6 - 0,0
21.06.2018 08:00:00 19,8 17,0 21 11 31 17 NNE 1020,1 - 0,0
21.06.2018 07:00:00 19,6 17,0 22 12 38 21 NNE 1019,7 - 0,0
21.06.2018 06:00:00 19,8 17,2 30 16 38 20 NNE 1019,1 - 0,0
21.06.2018 05:00:00 20,4 18,0 24 13 33 18 NNE 1018,9 - 0,0
21.06.2018 04:00:00 20,8 17,4 23 12 31 17 NNE 1018,8 - 0,0
21.06.2018 03:00:00 21,1 17,5 16 9 26 14 N 1018,9 - 0,0
21.06.2018 02:00:00 21,1 17,5 8 4 16 8 NNE 1019,1 14 0,0
21.06.2018 01:00:00 21,6 18,2 13 7 18 10 NNE 1019,2 - 0,0
21.06.2018 00:00:00 22,1 18,3 13 7 18 10 N 1019,1 - 0,0
20.06.2018 23:00:00 22,3 18,7 14 8 19 11 N 1019,0 - 0,0
20.06.2018 22:00:00 22,8 18,3 16 9 21 12 N 1018,2 - 0,0
20.06.2018 21:00:00 23,4 18,7 16 9 22 12 NNW 1018,0 - 0,0
20.06.2018 20:00:00 23,8 18,9 16 9 25 13 NW 1017,9 - 0,0
20.06.2018 19:00:00 24,3 19,1 15 8 24 13 NW 1018,1 - 0,0
20.06.2018 18:00:00 24,3 19,6 13 7 23 12 WNW 1018,4 - 0,0
20.06.2018 17:00:00 24,3 20,0 13 7 23 12 NW 1018,5 - 0,0
20.06.2018 16:00:00 26,7 21,0 8 4 14 7 WNW 1018,8 - 0,0
20.06.2018 15:00:00 26,0 21,0 5 3 10 6 WNW 1019,1 - 0,0
20.06.2018 14:00:00 24,9 20,4 4 2 7 4 NW 1019,5 15 0,0
20.06.2018 13:00:00 24,1 19,6 4 2 9 5 N 1019,7 - 0,0
20.06.2018 12:00:00 23,2 18,7 5 3 13 7 NNE 1019,9 - 0,0
20.06.2018 11:00:00 22,5 18,5 8 4 16 9 NE 1019,9 15 0,0
20.06.2018 10:00:00 21,6 18,0 10 5 20 11 ENE 1019,9 - 0,0
20.06.2018 09:00:00 20,6 17,4 10 6 23 12 ENE 1019,8 - 0,0
20.06.2018 08:00:00 19,6 17,2 14 8 24 13 ENE 1019,8 17 0,0
20.06.2018 07:00:00 19,2 16,8 14 7 25 14 ENE 1019,7 - 0,0
20.06.2018 06:00:00 19,1 16,9 14 8 23 12 ENE 1019,8 - 0,0
20.06.2018 05:00:00 19,0 17,0 17 9 26 14 NE 1020,0 - 0,0
20.06.2018 04:00:00 19,3 17,1 16 8 23 13 NE 1020,5 - 0,0
20.06.2018 03:00:00 19,5 17,3 16 9 27 15 NE 1020,9 - 0,0
20.06.2018 02:00:00 19,9 17,7 18 10 26 14 NE 1021,2 13 0,0
20.06.2018 01:00:00 20,1 17,7 16 8 23 13 NE 1021,5 - 0,0
20.06.2018 00:00:00 20,7 17,9 17 9 26 14 NE 1021,7 - 0,0
19.06.2018 23:00:00 21,1 17,7 16 9 23 12 NE 1021,9 14 0,0
19.06.2018 22:00:00 20,8 17,6 11 6 21 11 NE 1021,6 - 0,0
19.06.2018 21:00:00 20,5 18,1 15 8 30 16 NNW 1021,8 - 0,0
19.06.2018 20:00:00 20,4 17,8 23 12 35 19 NW 1022,1 14 0,0
19.06.2018 19:00:00 20,7 17,3 24 13 37 20 NW 1022,5 - 0,0
19.06.2018 18:00:00 20,0 17,0 26 14 37 20 NW 1023,1 - 0,0
19.06.2018 17:00:00 20,3 18,1 22 12 31 17 NW 1023,6 8 0,0
19.06.2018 16:00:00 19,9 17,9 21 11 30 16 NW 1024,3 - 0,0
19.06.2018 15:00:00 20,2 17,8 17 9 25 13 NW 1024,7 - 0,0
19.06.2018 14:00:00 20,3 17,3 14 8 23 13 NW 1025,2 10 0,0
19.06.2018 13:00:00 20,4 16,8 8 5 12 7 NW 1025,6 - 0,0
19.06.2018 12:00:00 19,8 16,2 6 4 10 5 N 1025,8 - 0,0
19.06.2018 11:00:00 19,3 16,0 5 3 11 6 NNE 1026,1 - 0,0
19.06.2018 10:00:00 19,3 15,8 8 4 13 7 NE 1026,4 - 0,0
19.06.2018 09:00:00 18,6 16,2 8 4 11 6 NNE 1026,6 - 0,0
19.06.2018 08:00:00 17,6 15,8 5 3 13 7 NE 1026,5 - 0,0
19.06.2018 07:00:00 17,0 15,2 9 5 15 8 N 1026,6 - 0,0
19.06.2018 06:00:00 16,9 15,1 10 5 18 10 N 1026,6 - 0,0
19.06.2018 05:00:00 16,9 14,7 13 7 20 11 N 1026,4 10 0,0
19.06.2018 04:00:00 17,1 14,9 12 7 24 13 N 1026,4 - 0,0
19.06.2018 03:00:00 17,2 14,3 15 8 27 15 N 1026,2 - 0,0
19.06.2018 02:00:00 17,3 14,0 20 11 32 17 N 1026,5 13 0,0
19.06.2018 01:00:00 17,4 14,9 19 10 29 16 NNW 1026,5 - 0,0
19.06.2018 00:00:00 17,6 15,0 20 11 27 15 NNW 1026,8 - 0,0
18.06.2018 23:00:00 17,6 13,9 21 11 31 17 NW 1026,8 - 0,0
18.06.2018 22:00:00 17,6 13,9 19 11 30 16 NW 1026,5 - 0,0
18.06.2018 21:00:00 18,0 13,9 20 11 31 17 NW 1026,1 - 0,0
18.06.2018 20:00:00 18,7 14,4 21 11 32 17 NW 1026,1 - 0,0
18.06.2018 19:00:00 18,3 14,0 18 10 29 16 WNW 1026,0 - 0,0
18.06.2018 18:00:00 18,7 14,2 18 10 29 16 WNW 1026,2 - 0,0
18.06.2018 17:00:00 19,0 13,6 18 10 27 15 WNW 1026,3 20 0,0
18.06.2018 16:00:00 18,8 14,3 17 9 31 17 NW 1026,4 - 0,0
18.06.2018 15:00:00 18,7 14,4 17 9 28 15 NW 1026,4 - 0,0
18.06.2018 14:00:00 18,2 14,5 18 10 29 16 NW 1026,4 11 0,0
18.06.2018 13:00:00 18,0 14,7 17 9 25 13 NW 1026,3 - 0,0
18.06.2018 12:00:00 17,6 15,0 16 9 28 15 NW 1026,0 - 0,0
18.06.2018 11:00:00 17,9 15,2 18 10 32 18 WNW 1025,7 8 0,0
18.06.2018 10:00:00 18,2 14,7 10 5 22 12 W 1025,5 - 0,0
18.06.2018 09:00:00 18,1 15,0 19 11 28 15 NW 1025,1 - 0,0
18.06.2018 08:00:00 17,8 14,9 16 9 36 19 NW 1024,7 8 0,0
18.06.2018 07:00:00 17,0 15,3 26 14 41 22 NW 1024,6 - 0,0
18.06.2018 06:00:00 17,4 16,3 19 10 33 18 W 1024,3 - 0,2
18.06.2018 05:00:00 17,8 15,6 24 13 31 17 W 1024,0 10 0,0
18.06.2018 04:00:00 17,3 16,0 18 10 29 15 WSW 1024,1 - 0,2
18.06.2018 03:00:00 17,0 15,7 21 11 32 18 WSW 1024,6 - 0,2
18.06.2018 02:00:00 17,9 14,8 19 10 28 15 WSW 1024,7 12 0,0
18.06.2018 01:00:00 17,7 14,8 19 10 29 16 W 1025,0 - 0,0
18.06.2018 00:00:00 17,9 14,6 21 11 34 19 W 1025,2 - 0,0
17.06.2018 23:00:00 17,7 13,6 21 11 31 17 W 1025,1 12 0,0
17.06.2018 22:00:00 17,7 13,0 22 12 29 16 W 1024,8 - 0,0
17.06.2018 21:00:00 17,8 12,7 22 12 34 19 W 1024,6 - 0,0
17.06.2018 20:00:00 17,9 13,0 26 14 33 18 W 1024,5 15 0,0
17.06.2018 19:00:00 18,1 12,3 24 13 33 18 W 1024,7 - 0,0
17.06.2018 18:00:00 18,4 12,2 17 9 33 18 W 1024,7 - 0,0
17.06.2018 17:00:00 18,4 11,7 21 11 32 17 W 1024,7 15 0,0
17.06.2018 16:00:00 19,0 11,6 18 10 30 16 W 1024,5 - 0,0
17.06.2018 15:00:00 18,6 11,9 21 12 31 17 W 1024,4 - 0,0
17.06.2018 14:00:00 18,9 12,6 14 8 25 13 W 1024,2 - 0,0
17.06.2018 13:00:00 18,7 12,9 15 8 26 14 WNW 1024,0 - 0,0
17.06.2018 12:00:00 18,1 12,3 16 8 27 15 W 1024,0 - 0,0
17.06.2018 11:00:00 18,5 12,0 3 2 11 6 WSW 1023,9 12 0,0
17.06.2018 10:00:00 17,9 11,7 4 2 9 5 E 1023,7 - 0,0
17.06.2018 09:00:00 17,1 11,4 6 3 17 9 NE 1023,4 - 0,0
17.06.2018 08:00:00 16,1 11,9 15 8 24 13 NNE 1023,0 10 0,0
17.06.2018 07:00:00 16,5 12,5 16 9 33 18 NNW 1022,5 - 0,0
17.06.2018 06:00:00 16,4 12,9 26 14 35 19 NNW 1022,0 - 0,0
17.06.2018 05:00:00 16,6 13,9 16 9 26 14 NW 1021,7 15 0,0
17.06.2018 04:00:00 16,9 14,4 21 11 36 19 NW 1021,5 - 0,0
17.06.2018 03:00:00 17,8 13,9 22 12 29 16 WSW 1021,5 - 0,0
17.06.2018 02:00:00 17,5 14,0 19 11 26 14 WSW 1021,7 - 0,0
17.06.2018 01:00:00 17,2 13,9 15 8 21 12 W 1022,0 - 0,0
17.06.2018 00:00:00 17,4 13,1 14 8 21 11 W 1021,9 - 0,0
16.06.2018 23:00:00 17,4 12,5 13 7 26 14 W 1021,9 15 0,0
16.06.2018 22:00:00 17,5 12,8 14 7 25 13 WNW 1021,4 - 0,0
16.06.2018 21:00:00 17,4 12,5 16 9 27 15 WNW 1021,4 - 0,0
16.06.2018 20:00:00 17,5 12,2 15 8 29 16 WNW 1020,9 20 0,0
16.06.2018 19:00:00 17,8 11,8 18 10 29 15 WNW 1021,0 - 0,0

tt = Température de l'air
td = dewpoint
ff = Vitesse du vent
fx = gusts
dd = Direction du vent
ppp = reduced air pressure
vv = visibility
rr = Quantités de précipitations

stations d'obs. à proximité